Погода в Нефтчале

Погода в Нефтчале : погода сейчас, прогноз погоды и архив. Всё, что Вы хотите узнать о погоде в Нефтчале!

Поиск расширенной информации на нашем сайте:

Полезная информация: Marina APM 200 25 недорого: насосная станция для частного дома. Станция бытового водоснабжения.

Другие новости

Новости СМИ2

Главная страница сайта

Новости сайта

02.10.2013

Напоминаем, что на нашем новом сайте вы можете получить высокодетализированные прогнозы погоды по пунктам России, СНГ и мира (включающие важные для авиации метеовеличины, такие как направление и скорость ветра, видимость, явления погоды, количество и форма облачности, нижняя и верхняя граница облачности), а также ознакомиться с разнообразными материалами по авиационной метеорологии и подборкой полезных ссылок на эту тему.

Сайт Метеоцентр.Азия посвящён разработке технологий оптимизации авиаметеорологического обслуживания, включая проектирование и перспективное создание нескольких автоматизированных авиаметеорологических систем:
- система выпуска высокодетальных прогностических карт явлений погоды для нижнего воздушного пространства по России и ближнему зарубежью;
- система верификации прогнозов TAF (выпускаемых синоптиками официальных АМСГ РФ и ближнего зарубежья) и AUTOTAF (выпускаемых сайтом Метеоцентр.Азия) - выявление ошибок, онлайн-сопоставление с фактической погодой METAR, автоматическое внесение коррективов в прогнозы при резком отклонении фактической погоды от прогноза, подсчёт оправдываемости прогнозов по элементам и в целом;
- система обработки, анализа и отображения авиаметеорологической информации для применения провайдерами метеорологической информации.

Рекомендуем: Abc автоматика ворота сервис.

Погода в Нефтчале - сегодня

Время (UTC), дата Ветер
(°,м/с) 
Видим.   Явления Облачность Т
(°С)
Тd
(°С)
f(%) Тe
(°С)
Pmin
(гПа)
dP
(гПа)
Po
(мм)
O2
(г/м3)
Тmin Tmax R s Состояние
почвы
03 24.04.17 320 (СЗ) 20000 м    8/8 600 м 
[Sc]
+14.1 +8.5 69 +14  1007.9  2.5  758  289           
06 24.04.17 270 (З) 20000 м    8/0 средняя 
[Ac und]
+18.4 +8.4 52 +19  1010.7  2.8  760  286           
09 24.04.17 140 (ЮВ) 20000 м  гроза без осадков  9/9 600 м кучево-дожд. 
[Cb cap]
+18.4 +4.6 40 +19  1014.6  3.9  763  287           
12 24.04.17 050 (СВ) 10  10 км  {гроза, ливн. осадки}  8/6 600 м средняя 
[Sc|Ac trans]
+14.6 +8.9 69 +13  1014.4  -0.1  763  290           
15 24.04.17 050 (СВ) 20000 м    ясно 
+12.9 +6.7 66 +13  1017.5  3.1  765  293         
18 24.04.17 тихо ()   10 км    ясно 
+11.1 +5.9 70 +11  1018.7  1.2  766  296    +19.7       
21 24.04.17 тихо ()   10 км    ясно 
+9.8 +5.5 75 +10  1018.3  -0.4  766  297           
00 25.04.17 тихо ()   10 км    ясно 
+9.1 +4.6 73 +9  1018.5  0.2  766  298           
03 25.04.17 тихо ()   20000 м    ясно 
+10.3 +7 80 +10  1020.4  1.9  767  297           
06 25.04.17 050 (СВ) 20000 м    ясно 
+16.4 +7.1 54 +16  1022.3  1.9  769  291           
09 25.04.17 050 (СВ) 20000 м    ясно 
+14.8 +8 64 +14  1024.1  1.8  770  293           
12 25.04.17 050 (СВ) 20-24{24}  20000 м    8/0 средняя 
[Ac und]
+12.9 +7.8 71 +10  1024.2  0.1  770  295           
15 25.04.17 050 (СВ) 24-28{28}  20000 м    10/0 средняя 
[Ac As]
+10.2 +5.9 75 +6  1027.3  3.1  773  299           
18 25.04.17 050 (СВ) 24-28{28}  10 км    10/0 
+10.9 +4.5 65 +7  1029.3  774  299    +16.4       
21 25.04.17 050 (СВ) 22-26{26}  10 км    10/0 средняя 
[Ac As]
+11.9 +2.1 51 +8  1030.4  1.1  775  299           
00 26.04.17 050 (СВ) 10 км    10/0 средняя 
[Ac As]
+12.2 +2.9 53 +11  1031.4  776  299           
03 26.04.17 050 (СВ) 20000 м    10/0 средняя 
[Ac As]
+11.7 +4.6 62 +12  1033.8  2.4  778  300           
06 26.04.17 050 (СВ) 20000 м    8/0 средняя 
[Ac und]
+12.9 +3.6 53 +13  1035.5  1.7  779  299           
09 26.04.17 050 (СВ) 20000 м    8/0 средняя 
[Ac und]
+14.2 +3.8 50 +15  1035.5  779  298           
12 26.04.17 050 (СВ) 20000 м    6/0 средняя 
[Ac trans]
+15.3 +2.9 43 +16  1034.2  -1.3  778  296           
15 26.04.17 тихо ()   20000 м    8/0 средняя 
[Ac und]
+13.3 +3 50 +13  1033.8  -0.4  770  295           
18 26.04.17 тихо ()   10 км    10/0 средняя 
[Ac As]
+11.8 +4 59 +12  1034.3  0.5  778  300    +16.2       
21 26.04.17 тихо ()   10 км    8/0 средняя 
[Ac und]
+11.1 +5.1 66 +11  1033.5  -0.7  777  300           
00 27.04.17 тихо ()   10 км    ясно 
+10.1 +5.5 73 +10  1032.9  -0.6  777  301           
03 27.04.17 тихо ()   20000 м    ясно 
+10.6 +5.6 71 +11  1033.2  0.3  777  301           
Время (UTC), дата Ветер
(°,м/с) 
Видим.   Явления Облачность Т
(°С)
Тd
(°С)
f(%) Тe
(°С)
Pmin
(гПа)
dP
(гПа)
Po
(мм)
O2
(г/м3)
Тmin Tmax R s Состояние
почвы

Для получения пояснительной информации подведите курсор к названию столбца.

ПОГОДА в Нефтчале - архив

Всё, что Вы хотите узнать о погоде в Нефтчале - удобно и подробно!

Выберите нужную дату (начиная с 1 января 2015* года) и нажмите кнопку "Найти".
Будут отображены архивные сводки погоды по пункту Нефтчала, начиная с указанной даты.


Отображать данные в формате CSV (для использования в таблицах Excel)


Внимание! Наш архив погоды предназначен исключительно для личного некоммерческого использования в познавательных целях. Если Вам необходимы официальные справки о состоянии погоды (для производственных, юридических, коммерческих и т.п. целей), обращайтесь в органы Росгидромета.

*Примечание: данная дата относится к архиву по метеостанциям СССР (Россия, СНГ, Балтия).
Архив по метеостанциям Зарубежной Европы и Азии (кроме Китая) хранится 10 дней, по другим регионам земного шара (Китай, Африка, Америка, Австралия, Океания) - 1 день.

Нефтчала - район местоположения метеостанции


Название, широта, долгота, высота метеостанции:
Нефтчала 39.4°ш. 49.2°д. -24 м над ур. моря [Азербайджан]

Дополнительная информация

В oтличие oт бoльшинства пoгoдных сайтoв мы публикуем пoдрoбную метеoинфoрмацию в детальнoм прoфессиoнальнoм фoрмате.

Характеристики температуры и влажнoсти вoздуха измеряются на высoте 2 м в тени вдали oт зданий и деревьев.
Скoрoсть ветра измеряется на высoте 10 м (на урoвне рoста челoвека скoрoсть ветра ниже в 1.5-2 раза). Если метеoстанция нахoдится в гoрoде или в лесу, тo скoрoсть ветра занижена на 2-4 м/с пo сравнению с oткрытым местoм. Скoрoсть ветра над акватoриями крупных рек и oзёр, а также на вершинах хoлмoв на 2-5 м/с выше, чем в oбычных услoвиях.
Атмoсфернoе давление в разных тoчках местнoсти мoжет значительнo oтличаться oт давления на метеoстанции, в зависимoсти oт услoвий рельефа (при пoдъёме на 10 м давление пoнижается примернo на 1 мм рт.ст.).